Regional Weather Roundup
Issued by NWS

Home | Current Version | Previous Version | Text Only | Print | Product List | Glossary On
Versions: 1 2 3 4 5 6 7 8 9 10 11 12 13 14 15 16 17 18 19 20 21 22 23 24 25 26 27 28 29 30 31 32 33 34 35 36 37 38 39 40 41 42 43 44 45 46 47 48 49 50
456
ASUS43 KMPX 230801
RWRMN
WEATHER ROUNDUP FOR MINNESOTA
NATIONAL WEATHER SERVICE TWIN CITIES/CHANHASSEN MN
300 AM CDT THU MAR 23 2017


NOTE: "FAIR" INDICATES FEW OR NO CLOUDS BELOW 12,000 FEET WITH NO
SIGNIFICANT WEATHER AND/OR OBSTRUCTIONS TO VISIBILITY. N/A MEANS
CURRENT SKY AND/OR WEATHER CONDITIONS ARE NOT AVAILABLE.

MNZ060>063-068>070-230900-
   Twin Cities Metro

CITY           SKY/WX    TMP DP  RH WIND       PRES   REMARKS
TWIN CITIES    CLOUDY    37  18  46 S12       30.23F
ST PAUL        CLOUDY    37  19  48 SE12      30.25F
CRYSTAL        CLOUDY    37  17  44 SE12      30.22F
BLAINE         CLOUDY    37  19  48 SE13      30.23F
LAKEVILLE      CLOUDY    36  23  60 SE9       30.22F
EDEN PRAIRIE   CLOUDY    38  20  48 SE12      30.21F
SOUTH ST PAUL  CLOUDY    37  19  47 S7        30.24F
LAKE ELMO      CLOUDY    36  19  51 SE10      30.26S
$$
MNZ001>005-007-008-013>017-022>024-027-028-230900-
   Northwest Minnesota

CITY           SKY/WX    TMP DP  RH WIND       PRES   REMARKS
BEMIDJI        CLOUDY    33  18  54 S15       30.06F WCI  23
HALLOCK        CLOUDY    34  27  75 S16       29.97F WCI  23
ROSEAU         CLOUDY    34  23  64 S10       30.01F WCI  26
WARROAD        CLOUDY    34  21  60 S14       30.03S WCI  24
THIEF RVR FALL   N/A    N/A N/A N/A MISG        N/A
CROOKSTON      CLOUDY    34  25  69 S14G21    30.00F WCI  24
FOSSTON        MOCLDY    32  19  59 S14       30.02F WCI  22
DETROIT LAKES  PTCLDY    34  23  64 SE17      30.04S WCI  23
MOORHEAD       PTCLDY    36  23  60 S23       30.00F
PARK RAPIDS    CLOUDY    34  18  52 S16G24    30.06F WCI  24
MAHNOMEN       FAIR      34  22  60 S14G26    30.01S WCI  24
$$
MNZ006-009>011-018-025>026-230900-
   North Central Minnesota

CITY           SKY/WX    TMP DP  RH WIND       PRES   REMARKS
BAUDETTE       CLOUDY    32  18  56 SE9       30.05F WCI  24
FLAG ISLAND    CLOUDY    30  21  69 S20       30.03F WCI  18
INTL FALLS     CLOUDY    30  19  63 SE14G22   30.11F WCI  19
WASKISH        CLOUDY    34  19  55 S12G21    30.06F WCI  25
BIG FORK       CLOUDY    32  18  55 SE9G18    30.11F WCI  24
LONGVILLE      CLOUDY    32  18  55 SE12      30.11F WCI  23
GRAND RAPIDS   CLOUDY    31  19  61 SE10G18   30.16F WCI  22
CRANE LAKE     CLOUDY    27  21  80 CALM      30.21F
ORR            CLOUDY    28  16  59 CALM      30.14F
COOK           CLOUDY    28  18  64 SE8       30.18F WCI  20
WALKER         CLOUDY    33  17  53 S10       30.08F WCI  24
$$
MNZ012-019>021-037-230900-
   Northeast Minnesota

CITY           SKY/WX    TMP DP  RH WIND       PRES   REMARKS
DULUTH         FLURRIES  30  19  63 SE7       30.23F WCI  23
ELY            FLURRIES  27  19  74 SE7       30.21F WCI  19
HIBBING        CLOUDY    29  15  56 S8        30.18F WCI  21
EVELETH        CLOUDY    30  12  47 SE9       30.21F WCI  22
DULUTH HARBOR  CLOUDY    34  21  60 CALM      30.28F
TWO HARBORS    CLOUDY    34  23  64 CALM      30.25S
SILVER BAY     CLOUDY    28  25  86 CALM      30.25F
GRAND MARAIS     N/A     31  23  72 N3        30.31F
G MARAIS ARPRT CLOUDY    25  18  74 SE3       30.25F
$$
MNZ029>031-032-039>041-046>048-054>057-064-230900-
   West Central Minnesota

CITY           SKY/WX    TMP DP  RH WIND       PRES   REMARKS
FERGUS FALLS   PTCLDY    36  23  60 S20G29    30.07F
WHEATON        CLOUDY    34  25  69 SE20      30.03F WCI  22
MORRIS         CLOUDY    36  25  64 SE20G25   30.04F
ALEXANDRIA     CLOUDY    36  21  54 S16       30.09F
ELBOW LAKE     CLOUDY    36  23  60 SE25G32   30.04F
WADENA         CLOUDY    34  21  60 SE15G23   30.07F WCI  24
GLENWOOD       CLOUDY    36  21  55 SE24G30   30.09F
APPLETON       CLOUDY    37  25  60 SE14      30.06F
BENSON         CLOUDY    37  21  52 S14G20    30.09F
ORTONVILLE     CLOUDY    36  25  64 SE16      30.03F
MADISON        CLOUDY    39  28  65 SE17      30.04F
WILLMAR        CLOUDY    37  25  60 SE16G23   30.12F
$$
MNZ033>034-036-042>043-049>051-058-059-230900-
   Central Minnesota

CITY           SKY/WX    TMP DP  RH WIND       PRES   REMARKS
ST CLOUD       CLOUDY    35  21  56 SE12      30.17F WCI  27
SAUK CENTRE    CLOUDY    35  22  58 SE16G22   30.12F WCI  25
PAYNESVILLE      N/A     36  22  56 SE16G24   30.14F
AITKIN         CLOUDY    32  23  69 E13       30.15F WCI  22
PINE RIVER     CLOUDY    34  18  51 SE10G17   30.15F WCI  26
BRAINERD       CLOUDY    34  16  47 S13       30.15F WCI  25
STAPLES        CLOUDY    34  18  51 SE15G22   30.09F WCI  24
LONG PRAIRIE   CLOUDY    34  21  60 E14G21    30.13F WCI  24
LITTLE FALLS   CLOUDY    34  18  51 SE10      30.16F WCI  26
LITCHFIELD     CLOUDY    37  23  56 SE13G18   30.16F
BUFFALO        CLOUDY    37  20  51 SE9       30.20F
MAPLE LAKE     CLOUDY    37  24  58 SE10G17   30.19F
HUTCHINSON     CLOUDY    37  25  63 SE13      30.17F
$$
MNZ037-044-045-052-053-230900-
   East Central Minnesota

CITY           SKY/WX    TMP DP  RH WIND       PRES   REMARKS
PRINCETON      CLOUDY    37  18  44 SE10G17   30.20F
MORA           CLOUDY    32  23  69 SE7       30.24F WCI  26
CAMBRIDGE      CLOUDY    36  21  55 SE6       30.21F
RUSH CITY      LGT SNOW  29  26  88 SE9       30.25S WCI  21
MOOSE LAKE     CLOUDY    32  19  59 S5        30.21F WCI  27
HINCKLEY       LGT SNOW  32  27  80 S14       30.26R WCI  22
CLOQUET        CLOUDY    30  18  59 SE7       30.22F WCI  23
MCGREGOR       CLOUDY    32  27  80 SE12G22   30.20F WCI  23
$$
MNZ071>073-080-081-089-090-097-098-230900-
   Southwest Minnesota

CITY           SKY/WX    TMP DP  RH WIND       PRES   REMARKS
MONTEVIDEO     CLOUDY    37  25  60 S14G20    30.09F
GRANITE FALLS  CLOUDY    38  28  65 SE16      30.11F
CANBY          CLOUDY    40  28  62 S12       30.05F
MARSHALL       CLOUDY    38  25  59 S18G24    30.07F
REDWOOD FALLS  CLOUDY    37  24  59 SE18      30.12F
OLIVIA         CLOUDY    36  25  64 SE14      30.13S
PIPESTONE      CLOUDY    37  23  56 S18G24    30.03F
WINDOM         PTCLDY    36  25  64 SE15      30.11F
JACKSON        CLOUDY    36  25  64 SE13      30.13S
TRACY          CLOUDY    38  27  64 S18G24    30.08S
SLAYTON        CLOUDY    35  27  70 SE18      30.08S WCI  25
$$
MNZ065>067-074>077-082>085-091>093-230900-
   South Central Minnesota

CITY           SKY/WX    TMP DP  RH WIND       PRES   REMARKS
MANKATO        CLOUDY    36  23  59 SE17      30.18F
NEW ULM        CLOUDY    36  21  55 S17G23    30.15F
ST JAMES       CLOUDY    36  27  69 SE14      30.17F
FAIRMONT       CLOUDY    36  24  62 S21G28    30.15F
GLENCOE        CLOUDY    37  26  62 SE13G18   30.17F
FARIBAULT      FLURRIES  36  23  60 SE12      30.22F
OWATONNA       LGT RAIN  36  23  60 SE14      30.22F
WASECA         CLOUDY    36  27  69 SE16      30.21F
ALBERT LEA     CLOUDY    36  21  55 S20G28    30.19F
$$
MNZ078>079-086>088-094>096-230900-
   Southeast Minnesota

CITY           SKY/WX    TMP DP  RH WIND       PRES   REMARKS
ROCHESTER      CLOUDY    34  24  67 S21G31    30.24F WCI  22
RED WING       CLOUDY    37  16  41 SE9       30.27S
STANTON        CLOUDY    37  23  55 S12       30.23S
DODGE CENTER   CLOUDY    34  25  69 SE18G25   30.23F WCI  23
WINONA         CLOUDY    37  19  48 SE8       30.31F
AUSTIN         CLOUDY    36  25  64 SE8G16    30.23F
PRESTON        CLOUDY    34  22  61 S18       30.27F WCI  23
$$
ABBREVIATIONS USED IN REMARKS
   TC - TEMPERATURES IN CELSIUS
  WCI - WIND CHILL INDEX
   HX - HEAT INDEX
  VSB - VISIBILITY
$$




USA.gov is the U.S. government's official web portal to all federal, state and local government web resources and services.